Weather History for Sarnia, ON

Change the Weather History Date:

Wednesday, April 10, 2013

  Actual Average Record
Temperature  
Mean Temperature 38 °F -  
Max Temperature 44 °F 50 °F 82 °F (1955)
Min Temperature 32 °F 31 °F 15 °F (1989)
Degree Days  
Heating Degree Days 27    
Moisture  
Dew Point 38 °F    
Average Humidity 98    
Maximum Humidity 100    
Minimum Humidity 43    
Precipitation  
Precipitation 0.01 in - - ()
Sea Level Pressure  
Sea Level Pressure 29.98 in    
Wind  
Wind Speed 12 mph ()    
Max Wind Speed 32 mph    
Max Gust Speed 47 mph    
Visibility 4.1 miles    
Events Rain , Thunderstorm    
Averages and records for this station are not official NWS values.
T = Trace of Precipitation, MM = Missing Value Source: Averaged Metar Reports

Daily Weather History Graph

Daily Weather History Graph

Search for Another Location

Airport:

Trip Planner

Search our weather history database for the weather conditions in past years. The results will help you decide how hot, cold, wet, or windy it might be!

Date:

Astronomy

Apr. 10, 2013 Rise Set
Actual Time 6:55 AM EDT 8:06 PM EDT
Civil Twilight 6:26 AM EDT 8:35 PM EDT
Nautical Twilight 5:51 AM EDT 9:10 PM EDT
Astronomical Twilight 5:14 AM EDT 9:47 PM EDT
Moon 6:50 AM EDT (4/10) 8:42 PM EDT (4/10)
Length of Visible Light 14h 09m
Length of Day
13h 10m
New Moon, 0% of the Moon is Illuminated
Apr 10
New Moon
Apr 18
First Quarter
Apr 25
Full
May 2
Last Quarter
May 9
New

Hourly Weather History & Observations

Time (EDT) Temp. Windchill Dew Point Humidity Pressure Visibility Wind Dir Wind Speed Gust Speed Precip Events Conditions
12:00 AM 37.4 °F 29.3 °F 37.4 °F 100% 30.01 in 2.5 mi NNW 12.7 mph - N/A Rain Light Rain
12:06 AM 37.4 °F 31.4 °F 37.4 °F 100% 30.00 in 2.5 mi North 8.1 mph 19.6 mph N/A Rain Heavy Rain
12:11 AM 37.4 °F 29.3 °F 37.4 °F 100% 30.01 in 2.0 mi North 12.7 mph 19.6 mph N/A Rain Rain
12:19 AM 37.4 °F 29.8 °F 37.4 °F 100% 30.00 in 3.0 mi North 11.5 mph 19.6 mph N/A Rain Light Rain
1:00 AM 37.4 °F 28.5 °F 37.4 °F 100% 30.01 in 3.0 mi North 15.0 mph - N/A Rain Light Rain
2:00 AM 33 °F - 32 °F 92% 29.92 in - South 2.3 mph - -  
2:00 AM 37.4 °F 30.8 °F 37.4 °F 100% 30.01 in 3.0 mi North 9.2 mph - N/A Rain Light Rain
3:00 AM 37.4 °F 28.5 °F 37.4 °F 100% 30.00 in 3.0 mi North 15.0 mph - N/A Rain Light Rain
3:40 AM 35.6 °F 27.1 °F 35.6 °F 100% 30.00 in 4.0 mi North 12.7 mph - N/A   Overcast
4:00 AM 35.6 °F 27.1 °F 35.6 °F 100% 29.98 in 5.0 mi NNE 12.7 mph - N/A   Overcast
5:00 AM 37.4 °F 30.8 °F 37.4 °F 100% 29.98 in 5.0 mi NNE 9.2 mph - N/A   Overcast
5:43 AM 37.4 °F 32.1 °F 37.4 °F 100% 29.98 in 5.0 mi NNE 6.9 mph - N/A Rain Light Rain
6:00 AM 37.4 °F 31.4 °F 37.4 °F 100% 29.96 in 4.0 mi NE 8.1 mph - N/A Rain Light Rain
6:11 AM 37.4 °F 31.4 °F 37.4 °F 100% 29.96 in 4.0 mi NE 8.1 mph - N/A   Overcast
6:48 AM 39.2 °F 33.0 °F 39.2 °F 100% 29.97 in 3.0 mi North 9.2 mph - N/A Rain Light Rain
6:53 AM 37.4 °F 27.2 °F 37.4 °F 100% 30.00 in 2.2 mi NNW 19.6 mph - N/A Rain Rain
6:55 AM 37.4 °F 26.6 °F 37.4 °F 100% 30.01 in 1.8 mi NNW 21.9 mph - N/A Rain Rain
6:56 AM 37.4 °F 26.9 °F 37.4 °F 100% 30.00 in 1.8 mi NNW 20.7 mph - N/A Rain Heavy Rain
7:00 AM 37.4 °F 27.8 °F 37.4 °F 100% 30.00 in 1.5 mi North 17.3 mph 26.5 mph N/A Rain Heavy Rain
7:03 AM 37.4 °F 27.5 °F 37.4 °F 100% 30.01 in 1.5 mi North 18.4 mph 26.5 mph N/A Rain Rain
7:09 AM 37.4 °F 28.2 °F 37.4 °F 100% 30.00 in 2.2 mi North 16.1 mph 21.9 mph N/A Rain Light Rain
7:23 AM 37.4 °F 27.5 °F 37.4 °F 100% 29.99 in 3.0 mi NNE 18.4 mph 25.3 mph N/A Rain Light Rain
7:51 AM 37.4 °F 28.9 °F 37.4 °F 100% 30.03 in 3.0 mi NNE 13.8 mph 23.0 mph N/A Rain , Thunderstorm Rain
7:53 AM 37.4 °F 28.9 °F 37.4 °F 100% 30.03 in 3.0 mi NNE 13.8 mph 23.0 mph N/A Rain , Thunderstorm Thunderstorms and Rain
8:00 AM 35 °F - 34 °F 94% 29.88 in - WSW 2.3 mph - -  
8:00 AM 37.4 °F 27.8 °F 37.4 °F 100% 30.01 in 3.0 mi NNE 17.3 mph - N/A Rain , Thunderstorm Light Thunderstorms and Rain
8:08 AM 37.4 °F 28.5 °F 37.4 °F 100% 30.01 in 3.0 mi NNE 15.0 mph - N/A Rain Light Rain
9:00 AM 39.2 °F 31.6 °F 39.2 °F 100% 30.01 in 3.0 mi NE 12.7 mph 19.6 mph N/A Rain Rain
9:03 AM 37.4 °F 27.8 °F 37.4 °F 100% 30.01 in 2.5 mi NE 17.3 mph - N/A Rain Rain
9:06 AM 37.4 °F 28.9 °F 37.4 °F 100% 30.02 in 2.2 mi NNE 13.8 mph 20.7 mph N/A Rain , Thunderstorm Rain
9:18 AM 37.4 °F 28.2 °F 37.4 °F 100% 30.01 in 3.0 mi NNE 16.1 mph 21.9 mph N/A Rain , Thunderstorm Light Rain
9:21 AM 37.4 °F 27.5 °F 37.4 °F 100% 30.01 in 3.0 mi NNE 18.4 mph - N/A Rain Light Rain
9:37 AM 39.2 °F 30.8 °F 39.2 °F 100% 29.99 in 3.0 mi ENE 15.0 mph 20.7 mph N/A   Overcast
10:00 AM 39.2 °F 33.0 °F 39.2 °F 100% 29.99 in 4.0 mi ENE 9.2 mph 17.3 mph N/A   Overcast
10:12 AM 41.0 °F 34.7 °F 41.0 °F 100% 29.95 in 4.0 mi East 10.4 mph - N/A   Overcast
10:16 AM 41.0 °F 33.9 °F 41.0 °F 100% 29.94 in 6.0 mi East 12.7 mph - N/A   Overcast
11:00 AM 42.8 °F 38.0 °F 42.8 °F 100% 29.95 in 9.0 mi ENE 8.1 mph - N/A   Overcast
11:01 AM 42.8 °F 38.0 °F 42.8 °F 100% 29.95 in 9.0 mi ENE 8.1 mph - N/A   Overcast
11:43 AM 41.0 °F 36.4 °F 41.0 °F 100% 29.94 in 5.0 mi North 6.9 mph - N/A   Overcast
11:57 AM 41.0 °F 39.0 °F 41.0 °F 100% 29.94 in 3.0 mi North 3.5 mph - N/A Rain Light Rain
12:00 PM 41.0 °F 36.4 °F 41.0 °F 100% 29.94 in 3.0 mi North 6.9 mph - N/A Rain Light Rain
12:08 PM 39.2 °F 32.0 °F 39.2 °F 100% 29.95 in 2.2 mi North 11.5 mph - N/A Rain Light Rain
12:13 PM 39.2 °F 33.0 °F 39.2 °F 100% 29.94 in 1.5 mi NNE 9.2 mph - N/A Rain Light Rain
12:14 PM 39.2 °F 33.0 °F 39.2 °F 100% 29.94 in 1.5 mi NNE 9.2 mph - N/A Rain Light Rain
12:45 PM 37.4 °F 29.8 °F 37.4 °F 100% 29.96 in 1.8 mi NNE 11.5 mph - N/A Rain , Thunderstorm Light Rain
12:48 PM 37.4 °F 26.4 °F 37.4 °F 100% 30.08 in 1.8 mi NW 23.0 mph 34.5 mph N/A Rain , Thunderstorm Light Rain
12:49 PM 37.4 °F 24.6 °F 37.4 °F 100% 30.11 in 1.8 mi WNW 32.2 mph 47.2 mph N/A Rain , Thunderstorm Light Thunderstorms and Rain
12:54 PM 37.4 °F 25.9 °F 37.4 °F 100% 30.02 in 1.2 mi North 25.3 mph 47.2 mph N/A Rain , Thunderstorm Heavy Thunderstorms and Rain
12:59 PM 37.4 °F 28.9 °F 37.4 °F 100% 30.00 in 0.8 mi NNE 13.8 mph 46.0 mph N/A Rain Overcast
1:00 PM 37.4 °F 29.3 °F 37.4 °F 100% 30.00 in 0.8 mi NNE 12.7 mph 39.1 mph N/A Rain Overcast
1:03 PM 39.2 °F 30.8 °F 39.2 °F 100% 30.02 in 0.8 mi North 15.0 mph 28.8 mph N/A Rain Overcast
1:04 PM 39.2 °F 30.8 °F 39.2 °F 100% 30.03 in 1.0 mi North 15.0 mph 25.3 mph N/A   Overcast
1:06 PM 39.2 °F 29.8 °F 39.2 °F 100% 30.04 in 1.5 mi North 18.4 mph - N/A   Overcast
1:07 PM 39.2 °F 29.8 °F 39.2 °F 100% 30.04 in 2.0 mi North 18.4 mph - N/A   Overcast
1:08 PM 39.2 °F 29.8 °F 39.2 °F 100% 30.04 in 2.2 mi North 18.4 mph - N/A   Overcast
1:11 PM 37.4 °F 27.8 °F 37.4 °F 100% 30.01 in 3.0 mi North 17.3 mph - N/A   Overcast
1:15 PM 37.4 °F 27.8 °F 37.4 °F 100% 30.01 in 3.0 mi North 17.3 mph 23.0 mph N/A Rain Overcast
1:20 PM 37.4 °F 27.5 °F 37.4 °F 100% 29.99 in 5.0 mi NNE 18.4 mph - N/A Rain , Thunderstorm Light Thunderstorms and Rain
1:21 PM 37.4 °F 27.5 °F 37.4 °F 100% 29.98 in 5.0 mi NNE 18.4 mph - N/A Rain , Thunderstorm Light Rain
1:23 PM 37.4 °F 27.5 °F 37.4 °F 100% 29.97 in 5.0 mi NNE 18.4 mph - N/A Rain Light Rain
1:24 PM 37.4 °F 27.8 °F 37.4 °F 100% 29.96 in 5.0 mi NNE 17.3 mph - N/A Rain , Thunderstorm Light Rain
1:51 PM 39.2 °F 35.9 °F 39.2 °F 100% 29.99 in 4.0 mi East 4.6 mph - N/A Rain Light Rain
1:57 PM 39.2 °F 33.0 °F 39.2 °F 100% 29.95 in 2.5 mi East 9.2 mph - N/A Rain Light Rain
2:00 PM 42 °F - 27 °F 44% 29.89 in - WNW 9.2 mph - -  
2:00 PM 39.2 °F 32.5 °F 39.2 °F 100% 29.94 in 2.5 mi East 10.4 mph - N/A Rain Light Rain
2:15 PM 41.0 °F 31.4 °F 41.0 °F 100% 29.81 in 2.5 mi ENE 21.9 mph - N/A Rain Light Rain
2:18 PM 41.0 °F 32.8 °F 41.0 °F 100% 29.85 in 3.0 mi ENE 16.1 mph 25.3 mph N/A Rain Light Rain
2:24 PM 42.8 °F 37.5 °F 42.8 °F 100% 29.92 in 6.0 mi North 9.2 mph 25.3 mph N/A Rain Light Rain
2:38 PM 41.0 °F 37.1 °F 41.0 °F 100% 29.95 in 6.0 mi North 5.8 mph - N/A   Overcast
2:43 PM 41.0 °F 37.1 °F 41.0 °F 100% 29.95 in 5.0 mi North 5.8 mph - N/A   Overcast
2:56 PM 39.2 °F 31.6 °F 39.2 °F 100% 29.94 in 2.5 mi North 12.7 mph - N/A   Overcast
3:00 PM 39.2 °F 32.0 °F 39.2 °F 100% 29.95 in 2.5 mi North 11.5 mph - N/A   Overcast
3:41 PM 39.2 °F 30.2 °F 39.2 °F 100% 29.94 in 3.0 mi North 17.3 mph - N/A   Overcast
4:00 PM 37.4 °F 28.5 °F 37.4 °F 100% 29.96 in 3.0 mi North 15.0 mph - N/A   Overcast
4:11 PM 37.4 °F 28.2 °F 37.4 °F 100% 29.96 in 6.0 mi North 16.1 mph - N/A   Overcast
5:00 PM 37.4 °F 27.2 °F 37.4 °F 100% 29.97 in 9.0 mi NNE 19.6 mph 28.8 mph N/A   Overcast
5:02 PM 37.4 °F 27.2 °F 37.4 °F 100% 29.98 in 9.0 mi NNE 19.6 mph 26.5 mph N/A   Overcast
5:37 PM 37.4 °F 27.8 °F 37.4 °F 100% 29.98 in 9.0 mi North 17.3 mph 24.2 mph N/A   Overcast
6:00 PM 37.4 °F 27.8 °F 37.4 °F 100% 29.98 in 9.0 mi NNE 17.3 mph 23.0 mph N/A   Overcast
7:00 PM 37.4 °F 29.3 °F 37.4 °F 100% 30.01 in 9.0 mi North 12.7 mph 20.7 mph N/A   Overcast
7:46 PM 37.4 °F 27.2 °F 37.4 °F 100% 29.95 in 9.0 mi NNE 19.6 mph - N/A   Overcast
7:53 PM 37.4 °F 27.5 °F 37.4 °F 100% 29.94 in 9.0 mi NE 18.4 mph 25.3 mph N/A   Overcast
8:00 PM 38 °F - 23 °F 43% 29.88 in - NW 4.6 mph - -  
8:00 PM 37.4 °F 29.3 °F 37.4 °F 100% 29.98 in 9.0 mi NNE 12.7 mph 23.0 mph N/A   Overcast
8:03 PM 37.4 °F 29.8 °F 37.4 °F 100% 30.00 in 9.0 mi NNE 11.5 mph 21.9 mph N/A   Overcast
8:29 PM 37.4 °F 29.3 °F 37.4 °F 100% 30.01 in 9.0 mi NNE 12.7 mph - N/A   Overcast
8:56 PM 37.4 °F 28.5 °F 35.6 °F 93% 30.00 in 9.0 mi NNE 15.0 mph - N/A   Overcast
9:00 PM 37.4 °F 28.5 °F 35.6 °F 93% 30.00 in 9.0 mi NNE 15.0 mph - N/A   Overcast
10:00 PM 37.4 °F 28.5 °F 37.4 °F 100% 30.00 in 9.0 mi NE 15.0 mph 20.7 mph N/A   Overcast
11:00 PM 37.4 °F 28.9 °F 37.4 °F 100% 29.99 in 9.0 mi NE 13.8 mph 20.7 mph N/A   Overcast